COSMOS 2251 DEB, 33912

Orbit data source: Space-Track

COSMOS 2251 DEB, 33912 is space debris in LEO originally from a launch on Wed, 16 Jun 1993 UTC launched from the Plesetsk Missile And Space Complex (PKMTR). The debris from Iridium 33, an American commercial communications satellite, has been tracked extensively since its accidental collision with the defunct Russian satellite Cosmos 2251 in 2009. This event, occurring at high speed in low Earth orbit (LEO), generated thousands of pieces of space debris, significantly increasing the risk of further collisions. The Iridium 33 debris cloud has impacted space traffic management and orbital debris mitigation strategies, making it a subject of ongoing study in space situational awareness.

Loading next visibility...
Identifier
33912, 1993-036DR
Orbit
LEO
Country
Flag of CISCIS
Related business
Manufacturer
Unknown
Mission
Spacecraft
Bus & Motor
Unknown
Mass
Unknown
Launch date (UTC)
1993-06-16 (33 years ago)
Launch vehicle
Unknown
Launch site
Plesetsk Missile And Space Complex (PKMTR)
Object type
Payload
Rocket body
Debris
Shape & HBR
Unknown shape, 0.1 m
Radar Cross Section
Medium (>0.1 m² and <1 m²)

Expand to show TLE details & history
Last TLE update: 3 hours ago

TLE from 3 hours ago
0 COSMOS 2251 DEB
1 33912U 93036DR  26238.52858722  .00002106  00000-0  51383-3 0  9991
2 33912  74.0318  65.3663 0010645  84.3188 297.1062 14.53257045921623
Epoch: 2026-08-26T12:41Z
TLE epoch observation values (Epoch: 2026-08-26T12:41:09.935Z)
Latitude
20.46835°
Longitude
-93.60725°
Altitude
713.848 km
Speed
7.502 km/s
True Right ascension
04h 45m 51s
True Declination
20° 21' 19"
Sunlit
Object was in daylight at epoch
Visualization orbit readout
Latitude
Unknown
Longitude
Unknown
Altitude
Unknown
Speed
Unknown
Apparent Right ascension
Unknown
Apparent Declination
Unknown
Sunlit
N/A
Visualization observer readout
Local Sidereal Time
06:43:27
Azimuth
Unknown
Elevation
Unknown
Doppler factor
Unknown
Orbital elements
Apogee altitude
720.184 km
Perigee altitude
705.088 km
Semi-major axis
7,090.773 km
Eccentricity
0.00106
Inclination
74.0318°
RAAN
65.3663°
Arg. of periapsis
84.3188°
True anomaly
296.99755°
Mean anomaly
297.1062°
Eccentric anomaly
297.05188°
Mean motion
3.63499 °/min
Orbital period
99.04 mins
BSTAR
0.00051383
Loading maneuver chart data...
Computing Atmospheric mass density...

Documentation

Showing up to 5 results
|